Date String (YYYY-MM-DD hh:mm:ss) UTC,Instrument flags,Ambient pressure (hPa),Sample flow (lpm),Bypass flow (lpm),Sample temperature (°C),Ambient temperature (°C),ASC tube jacket temperature (°C),LED temperature (°C),Box temperature (°C),Sample RH (%),Span deviation,Mass concentration (μg/m³),Mass concentration (μg/m³),Mass concentration (μg/m³)
DateTimeUTC,F1_M11,P_M11,Q1_M11,Q2_M11,T1_M11,T2_M11,T3_M11,T4_M11,T5_M11,U1_M11,ZSPAN_M11,X0_M11,X2_M11,X1_M11
2021-12-05 08:00:00,,0820.6,5.01,0.00,26.1,25.3,00.0,35.1,27.8,08.0,0000.0,0003.91,0001.01,0000.75
2021-12-05 08:01:00,,0820.5,5.00,0.00,26.1,25.2,00.0,35.1,27.7,08.0,0000.0,0004.22,0001.01,0000.75
2021-12-05 08:02:00,,0820.6,4.99,0.00,26.1,25.2,00.0,35.1,27.7,08.1,0000.0,0004.94,0000.99,0000.75
2021-12-05 08:03:00,,0820.6,5.00,0.00,26.1,25.2,00.0,35.1,27.7,08.0,0000.0,0004.85,0000.98,0000.75
2021-12-05 08:04:00,,0820.5,5.01,0.00,26.1,25.2,00.0,35.1,27.7,08.0,0000.0,0004.79,0000.97,0000.75
2021-12-05 08:05:00,,0820.4,5.00,0.00,26.1,25.2,00.0,35.1,27.7,07.9,0000.0,0004.44,0000.92,0000.75
2021-12-05 08:06:00,,0820.4,5.00,0.00,26.1,25.2,00.0,35.1,27.7,07.8,0000.0,0003.98,0000.91,0000.75
2021-12-05 08:07:00,,0820.5,4.99,0.00,26.1,25.2,00.0,35.1,27.8,07.9,0000.0,0004.04,0000.93,0000.75
2021-12-05 08:08:00,,0820.4,5.01,0.00,26.1,25.2,00.0,35.1,27.8,07.9,0000.0,0003.31,0000.94,0000.74
2021-12-05 08:09:00,,0820.4,5.00,0.00,26.1,25.2,00.0,35.1,27.8,07.9,0000.0,0002.76,0000.94,0000.74
2021-12-05 08:10:00,,0820.3,4.99,0.00,26.1,25.2,00.0,35.1,27.8,07.9,0000.0,0002.80,0000.95,0000.73
2021-12-05 08:11:00,,0820.4,5.01,0.00,26.1,25.2,00.0,35.1,27.8,07.9,0000.0,0003.49,0000.97,0000.74
2021-12-05 08:12:00,,0820.4,5.00,0.00,26.1,25.2,00.0,35.1,27.8,07.9,0000.0,0003.74,0000.97,0000.73
2021-12-05 08:13:00,,0820.3,5.00,0.00,26.1,25.2,00.0,35.1,27.8,07.8,0000.0,0002.85,0001.00,0000.72
2021-12-05 08:14:00,,0820.4,5.00,0.00,26.1,25.2,00.0,35.1,27.8,07.7,0000.0,0002.81,0000.98,0000.72
2021-12-05 08:15:00,,0820.4,5.00,0.00,26.1,25.2,00.0,35.1,27.8,07.6,0000.0,0002.86,0000.98,0000.71
2021-12-05 08:16:00,,0820.4,5.00,0.00,26.1,25.2,00.0,35.1,27.8,07.7,0000.0,0002.92,0000.99,0000.71
2021-12-05 08:17:00,,0820.4,4.99,0.00,26.1,25.2,00.0,35.1,27.7,07.8,0000.0,0002.95,0001.00,0000.71
2021-12-05 08:18:00,,0820.4,5.01,0.00,26.1,25.2,00.0,35.1,27.7,07.8,0000.0,0003.01,0001.04,0000.70
2021-12-05 08:19:00,,0820.3,5.00,0.00,26.1,25.2,00.0,35.1,27.7,07.7,0000.0,0003.14,0001.08,0000.70
2021-12-05 08:20:00,,0820.3,5.01,0.00,26.1,25.1,00.0,35.1,27.7,07.6,0000.0,0003.21,0001.09,0000.69
2021-12-05 08:21:00,,0820.2,4.99,0.00,26.1,25.1,00.0,35.1,27.7,07.6,0000.0,0003.14,0001.06,0000.68
2021-12-05 08:22:00,,0820.2,5.01,0.00,26.1,25.1,00.0,35.1,27.8,07.5,0000.0,0002.52,0001.03,0000.66
2021-12-05 08:23:00,,0820.3,5.00,0.00,26.1,25.1,00.0,35.1,27.9,07.5,0000.0,0001.97,0000.99,0000.65
2021-12-05 08:24:00,,0820.3,5.00,0.00,26.1,25.1,00.0,35.1,27.9,07.6,0000.0,0001.72,0000.98,0000.64
2021-12-05 08:25:00,,0820.2,5.00,0.00,26.0,25.1,00.0,35.1,27.7,07.7,0000.0,0001.75,0000.98,0000.63
2021-12-05 08:26:00,,0820.2,5.01,0.00,26.0,25.0,00.0,35.1,27.6,07.7,0000.0,0001.72,0000.99,0000.62
2021-12-05 08:27:00,,0820.3,5.01,0.00,26.0,25.0,00.0,35.1,27.6,07.8,0000.0,0001.63,0000.97,0000.61
2021-12-05 08:28:00,,0820.3,4.99,0.00,26.0,25.0,00.0,35.1,27.6,07.9,0000.0,0001.66,0000.98,0000.61
2021-12-05 08:29:00,,0820.3,4.99,0.00,26.0,25.0,00.0,35.1,27.6,07.9,0000.0,0001.62,0000.95,0000.61
2021-12-05 08:30:00,,0820.2,5.01,0.00,26.0,25.0,00.0,35.1,27.6,08.0,0000.0,0001.45,0000.87,0000.61
2021-12-05 08:31:00,,0820.2,5.01,0.00,26.0,25.0,00.0,35.1,27.7,08.0,0000.0,0001.48,0000.85,0000.61
2021-12-05 08:32:00,,0820.2,5.00,0.00,26.0,25.0,00.0,35.1,27.8,08.1,0000.0,0001.50,0000.86,0000.62
2021-12-05 08:33:00,,0820.2,5.01,0.00,26.0,25.0,00.0,35.1,27.8,08.1,0000.0,0001.48,0000.87,0000.63
2021-12-05 08:34:00,,0820.2,5.00,0.00,26.0,25.1,00.0,35.1,27.8,08.2,0000.0,0001.48,0000.88,0000.65
2021-12-05 08:35:00,,0820.1,5.00,0.00,26.0,25.0,00.0,35.0,27.7,08.2,0000.0,0001.44,0000.89,0000.66
2021-12-05 08:36:00,,0820.0,4.99,0.00,26.0,25.1,00.0,35.0,27.7,08.2,0000.0,0001.56,0000.92,0000.67
2021-12-05 08:37:00,,0820.2,5.00,0.00,26.0,25.0,00.0,35.0,27.7,08.3,0000.0,0001.71,0000.93,0000.68
2021-12-05 08:38:00,,0820.2,5.00,0.00,26.0,25.1,00.0,35.0,27.7,08.3,0000.0,0001.72,0000.94,0000.70
2021-12-05 08:39:00,,0820.2,4.99,0.00,26.0,25.1,00.0,35.0,27.7,08.3,0000.0,0002.33,0000.95,0000.71
2021-12-05 08:40:00,,0820.0,5.01,0.00,26.0,25.0,00.0,35.0,27.6,08.4,0000.0,0002.76,0000.95,0000.71
2021-12-05 08:41:00,,0820.1,4.98,0.00,25.9,25.0,00.0,35.0,27.6,08.5,0000.0,0002.81,0000.95,0000.71
2021-12-05 08:42:00,,0820.1,5.02,0.00,25.9,25.0,00.0,35.0,27.7,08.5,0000.0,0002.71,0000.95,0000.72
2021-12-05 08:43:00,,0820.1,4.98,0.00,25.9,25.0,00.0,35.0,27.6,08.6,0000.0,0002.80,0000.99,0000.73
2021-12-05 08:44:00,,0820.1,4.99,0.00,25.9,25.0,00.0,35.0,27.6,08.6,0000.0,0002.82,0001.00,0000.74
2021-12-05 08:45:00,,0820.1,5.00,0.00,25.9,25.0,00.0,35.0,27.6,08.5,0000.0,0002.80,0000.99,0000.74
2021-12-05 08:46:00,,0820.1,5.00,0.00,25.9,25.0,00.0,35.0,27.5,08.6,0000.0,0002.77,0000.97,0000.73
2021-12-05 08:47:00,,0820.1,5.01,0.00,25.9,25.0,00.0,35.0,27.5,08.7,0000.0,0002.69,0000.97,0000.73
2021-12-05 08:48:00,,0820.1,4.98,0.00,25.9,25.0,00.0,35.0,27.6,08.7,0000.0,0002.61,0001.00,0000.73
2021-12-05 08:49:00,,0820.2,5.00,0.00,25.9,25.0,00.0,35.0,27.6,08.6,0000.0,0002.68,0001.03,0000.72
2021-12-05 08:50:00,,0820.0,5.00,0.00,25.9,25.0,00.0,35.0,27.6,08.8,0000.0,0001.98,0001.00,0000.72
2021-12-05 08:51:00,,0820.1,5.00,0.00,25.8,24.9,00.0,34.9,27.6,08.8,0000.0,0001.54,0000.99,0000.72
2021-12-05 08:52:00,,0820.0,5.00,0.00,25.8,24.9,00.0,34.9,27.6,08.9,0000.0,0001.60,0001.03,0000.73
2021-12-05 08:53:00,,0819.9,5.01,0.00,25.8,24.9,00.0,34.9,27.6,08.8,0000.0,0001.68,0001.06,0000.73
2021-12-05 08:54:00,,0819.9,5.00,0.00,25.8,24.9,00.0,34.9,27.6,08.8,0000.0,0002.34,0001.13,0000.74
2021-12-05 08:55:00,,0819.9,5.00,0.00,25.8,24.8,00.0,34.9,27.6,08.6,0000.0,0003.76,0001.29,0000.77
2021-12-05 08:56:00,,0819.9,5.01,0.00,25.8,24.8,00.0,34.9,27.6,08.7,0000.0,0004.29,0001.39,0000.77
2021-12-05 08:57:00,,0819.9,5.00,0.00,25.8,24.8,00.0,34.9,27.6,08.7,0000.0,0004.49,0001.46,0000.79
2021-12-05 08:58:00,,0819.9,4.99,0.00,25.8,24.8,00.0,34.9,27.6,08.8,0000.0,0004.98,0001.49,0000.81
2021-12-05 08:59:00,,0819.9,5.00,0.00,25.8,24.8,00.0,34.9,27.6,08.8,0000.0,0005.32,0001.50,0000.82
